Time,TemperatureF,DewpointF,PressureIn,WindDirection,WindDirectionDegrees,WindSpeedMPH,WindSpeedGustMPH,Humidity,HourlyPrecipIn,Conditions,Clouds,dailyrainin,SoftwareType,DateUTC
2013-07-23 00:01:00,80.6,64.0,30.00,North,0,0.0,0.0,57,0.00,,---,0.00,VWS V14.01,2013-07-23 04:01:00,
2013-07-23 00:06:00,80.4,64.3,30.00,North,0,0.0,0.0,58,0.00,,---,0.00,VWS V14.01,2013-07-23 04:06:00,
2013-07-23 00:11:00,80.4,64.8,30.00,North,0,0.0,0.0,59,0.00,,---,0.00,VWS V14.01,2013-07-23 04:11:00,
2013-07-23 00:16:00,80.4,65.3,30.00,North,0,0.0,0.0,60,0.00,,---,0.00,VWS V14.01,2013-07-23 04:16:00,
2013-07-23 00:21:00,80.4,65.3,30.00,North,0,0.0,0.0,60,0.00,,---,0.00,VWS V14.01,2013-07-23 04:21:00,
2013-07-23 00:26:00,80.2,65.6,30.00,North,0,0.0,0.0,61,0.00,,---,0.00,VWS V14.01,2013-07-23 04:26:00,
2013-07-23 00:31:00,80.2,65.6,30.00,North,0,0.0,0.0,61,0.00,,---,0.00,VWS V14.01,2013-07-23 04:31:00,
2013-07-23 00:36:00,80.2,65.6,30.00,North,0,0.0,0.0,61,0.00,,---,0.00,VWS V14.01,2013-07-23 04:36:00,
2013-07-23 00:41:00,80.1,65.4,30.00,North,0,0.0,0.0,61,0.00,,---,0.00,VWS V14.01,2013-07-23 04:41:00,
2013-07-23 00:46:00,80.1,65.4,30.00,North,0,0.0,0.0,61,0.00,,---,0.00,VWS V14.01,2013-07-23 04:46:00,
2013-07-23 00:51:00,79.9,65.7,30.00,North,0,0.0,0.0,62,0.00,,---,0.00,VWS V14.01,2013-07-23 04:51:00,
2013-07-23 00:56:00,79.7,66.0,30.00,North,0,0.0,0.0,63,0.00,,---,0.00,VWS V14.01,2013-07-23 04:56:00,
2013-07-23 01:01:00,79.7,65.5,30.00,North,0,0.0,0.0,62,0.00,,---,0.00,VWS V14.01,2013-07-23 05:01:00,
2013-07-23 01:06:00,79.7,65.5,30.00,North,0,0.0,0.0,62,0.00,,---,0.00,VWS V14.01,2013-07-23 05:06:00,
2013-07-23 01:11:00,79.5,65.8,30.00,North,0,0.0,0.0,63,0.00,,---,0.00,VWS V14.01,2013-07-23 05:11:00,
2013-07-23 01:16:00,79.5,66.3,30.00,North,0,0.0,0.0,64,0.00,,---,0.00,VWS V14.01,2013-07-23 05:16:00,
2013-07-23 01:21:00,79.5,66.7,30.00,North,0,0.0,0.0,65,0.00,,---,0.00,VWS V14.01,2013-07-23 05:21:00,
2013-07-23 01:26:00,79.3,67.0,30.00,North,0,0.0,0.0,66,0.00,,---,0.00,VWS V14.01,2013-07-23 05:26:00,
2013-07-23 01:31:00,79.2,67.3,30.00,North,0,0.0,0.0,67,0.00,,---,0.00,VWS V14.01,2013-07-23 05:31:00,
2013-07-23 01:36:00,79.2,68.1,30.00,North,0,0.0,0.0,69,0.00,,---,0.00,VWS V14.01,2013-07-23 05:36:00,
2013-07-23 01:41:00,79.2,68.1,30.00,North,0,0.0,0.0,69,0.00,,---,0.00,VWS V14.01,2013-07-23 05:41:00,
2013-07-23 01:46:00,79.2,68.1,30.00,North,0,0.0,0.0,69,0.00,,---,0.00,VWS V14.01,2013-07-23 05:46:00,
2013-07-23 01:51:00,79.2,68.1,30.00,North,0,0.0,0.0,69,0.00,,---,0.00,VWS V14.01,2013-07-23 05:51:00,
2013-07-23 01:56:00,79.2,68.1,30.00,North,0,0.0,0.0,69,0.00,,---,0.00,VWS V14.01,2013-07-23 05:56:00,
2013-07-23 02:01:00,79.2,67.7,30.00,North,0,0.0,0.0,68,0.00,,---,0.00,VWS V14.01,2013-07-23 06:01:00,
2013-07-23 02:06:00,79.2,67.3,30.00,North,0,0.0,0.0,67,0.00,,---,0.00,VWS V14.01,2013-07-23 06:06:00,
2013-07-23 02:11:00,79.2,67.3,30.00,North,0,0.0,0.0,67,0.00,,---,0.00,VWS V14.01,2013-07-23 06:11:00,
2013-07-23 02:16:00,79.2,66.8,30.00,North,0,0.0,0.0,66,0.00,,---,0.00,VWS V14.01,2013-07-23 06:16:00,
2013-07-23 02:21:00,79.2,66.8,30.00,North,0,0.0,0.0,66,0.00,,---,0.00,VWS V14.01,2013-07-23 06:21:00,
2013-07-23 02:26:00,79.2,66.4,30.00,North,0,0.0,0.0,65,0.00,,---,0.00,VWS V14.01,2013-07-23 06:26:00,
2013-07-23 02:31:00,79.2,66.4,30.00,North,0,0.0,0.0,65,0.00,,---,0.00,VWS V14.01,2013-07-23 06:31:00,
2013-07-23 02:36:00,79.3,66.6,30.00,North,0,0.0,0.0,65,0.00,,---,0.00,VWS V14.01,2013-07-23 06:36:00,
2013-07-23 02:41:00,79.3,66.6,30.00,North,0,0.0,0.0,65,0.00,,---,0.00,VWS V14.01,2013-07-23 06:41:00,
2013-07-23 02:46:00,79.5,66.3,30.00,North,0,0.0,0.0,64,0.00,,---,0.00,VWS V14.01,2013-07-23 06:46:00,
2013-07-23 02:51:00,79.5,66.3,30.00,North,0,0.0,0.0,64,0.00,,---,0.00,VWS V14.01,2013-07-23 06:51:00,
2013-07-23 02:56:00,79.5,66.3,30.00,North,0,0.0,0.0,64,0.00,,---,0.00,VWS V14.01,2013-07-23 06:56:00,
2013-07-23 03:01:00,79.7,66.5,29.97,North,0,0.0,0.0,64,0.00,,---,0.00,VWS V14.01,2013-07-23 07:01:00,
2013-07-23 03:06:00,79.7,66.5,29.97,North,0,0.0,0.0,64,0.00,,---,0.00,VWS V14.01,2013-07-23 07:06:00,
2013-07-23 03:11:00,79.7,66.9,29.97,North,0,0.0,0.0,65,0.00,,---,0.00,VWS V14.01,2013-07-23 07:11:00,
2013-07-23 03:16:00,79.7,66.9,29.97,North,0,0.0,0.0,65,0.00,,---,0.00,VWS V14.01,2013-07-23 07:16:00,
2013-07-23 03:21:00,79.7,66.9,29.97,North,0,0.0,0.0,65,0.00,,---,0.00,VWS V14.01,2013-07-23 07:21:00,
2013-07-23 03:26:00,79.9,67.5,29.97,North,0,0.0,0.0,66,0.00,,---,0.00,VWS V14.01,2013-07-23 07:26:00,
2013-07-23 03:31:00,79.9,67.5,29.97,North,0,0.0,0.0,66,0.00,,---,0.00,VWS V14.01,2013-07-23 07:31:00,
2013-07-23 03:36:00,79.9,66.6,29.97,North,0,0.0,0.0,64,0.00,,---,0.00,VWS V14.01,2013-07-23 07:36:00,
2013-07-23 03:41:00,79.9,66.6,29.97,North,0,0.0,0.0,64,0.00,,---,0.00,VWS V14.01,2013-07-23 07:41:00,
2013-07-23 03:46:00,79.9,66.6,29.97,North,0,0.0,0.0,64,0.00,,---,0.00,VWS V14.01,2013-07-23 07:46:00,
2013-07-23 03:51:00,79.9,66.6,29.97,North,0,0.0,0.0,64,0.00,,---,0.00,VWS V14.01,2013-07-23 07:51:00,
2013-07-23 03:56:00,79.9,66.6,29.97,North,0,0.0,0.0,64,0.00,,---,0.00,VWS V14.01,2013-07-23 07:56:00,
2013-07-23 04:01:00,79.9,66.2,29.97,North,0,0.0,0.0,63,0.00,,---,0.00,VWS V14.01,2013-07-23 08:01:00,
2013-07-23 04:06:00,79.9,66.2,29.97,North,0,0.0,0.0,63,0.00,,---,0.00,VWS V14.01,2013-07-23 08:06:00,
2013-07-23 04:11:00,79.9,65.7,29.97,North,0,0.0,0.0,62,0.00,,---,0.00,VWS V14.01,2013-07-23 08:11:00,
2013-07-23 04:16:00,79.9,65.2,29.97,North,0,0.0,0.0,61,0.00,,---,0.00,VWS V14.01,2013-07-23 08:16:00,
2013-07-23 04:21:00,79.9,64.8,29.97,North,0,0.0,0.0,60,0.00,,---,0.00,VWS V14.01,2013-07-23 08:21:00,
2013-07-23 04:26:00,79.9,64.8,29.97,North,0,0.0,0.0,60,0.00,,---,0.00,VWS V14.01,2013-07-23 08:26:00,
2013-07-23 04:31:00,79.7,64.6,29.97,North,0,0.0,0.0,60,0.00,,---,0.00,VWS V14.01,2013-07-23 08:31:00,
2013-07-23 04:36:00,79.7,64.6,29.97,North,0,0.0,0.0,60,0.00,,---,0.00,VWS V14.01,2013-07-23 08:36:00,
2013-07-23 04:41:00,79.7,65.1,29.97,North,0,0.0,0.0,61,0.00,,---,0.00,VWS V14.01,2013-07-23 08:41:00,
2013-07-23 04:46:00,79.5,64.9,29.97,North,0,0.0,0.0,61,0.00,,---,0.00,VWS V14.01,2013-07-23 08:46:00,
2013-07-23 04:51:00,79.5,64.9,29.97,North,0,0.0,0.0,61,0.00,,---,0.00,VWS V14.01,2013-07-23 08:51:00,
2013-07-23 04:56:00,79.5,64.4,29.97,North,0,0.0,0.0,60,0.00,,---,0.00,VWS V14.01,2013-07-23 08:56:00,
2013-07-23 05:01:00,79.3,63.8,29.97,North,0,0.0,0.0,59,0.00,,---,0.00,VWS V14.01,2013-07-23 09:01:00,
2013-07-23 05:05:00,79.3,63.8,29.97,North,0,0.0,0.0,59,0.00,,---,0.00,VWS V14.01,2013-07-23 09:05:00,
2013-07-23 05:10:00,79.3,63.8,29.97,North,0,0.0,0.0,59,0.00,,---,0.00,VWS V14.01,2013-07-23 09:10:00,
2013-07-23 05:15:00,79.2,63.6,29.94,North,0,0.0,0.0,59,0.00,,---,0.00,VWS V14.01,2013-07-23 09:15:00,
2013-07-23 05:20:00,79.2,64.1,29.94,North,0,0.0,0.0,60,0.00,,---,0.00,VWS V14.01,2013-07-23 09:20:00,
2013-07-23 05:25:00,79.2,64.1,29.94,North,0,0.0,0.0,60,0.00,,---,0.00,VWS V14.01,2013-07-23 09:25:00,
2013-07-23 05:30:00,79.0,64.4,29.94,North,0,0.0,0.0,61,0.00,,---,0.00,VWS V14.01,2013-07-23 09:30:00,
2013-07-23 05:35:00,79.0,64.4,29.94,North,0,0.0,0.0,61,0.00,,---,0.00,VWS V14.01,2013-07-23 09:35:00,
2013-07-23 05:40:00,79.0,64.9,29.94,North,0,0.0,0.0,62,0.00,,---,0.00,VWS V14.01,2013-07-23 09:40:00,
2013-07-23 05:45:00,78.6,65.0,29.94,North,0,0.0,0.0,63,0.00,,---,0.00,VWS V14.01,2013-07-23 09:45:00,
2013-07-23 05:50:00,78.6,65.0,29.94,North,0,0.0,0.0,63,0.00,,---,0.00,VWS V14.01,2013-07-23 09:50:00,
2013-07-23 05:55:00,78.6,65.0,29.94,North,0,0.0,0.0,63,0.00,,---,0.00,VWS V14.01,2013-07-23 09:55:00,
2013-07-23 06:00:00,78.4,64.8,29.94,North,0,0.0,0.0,63,0.00,,---,0.00,VWS V14.01,2013-07-23 10:00:00,
2013-07-23 06:05:00,78.3,65.1,29.94,North,0,0.0,0.0,64,0.00,,---,0.00,VWS V14.01,2013-07-23 10:05:00,
2013-07-23 06:10:00,78.1,65.4,29.94,North,0,0.0,0.0,65,0.00,,---,0.00,VWS V14.01,2013-07-23 10:10:00,
2013-07-23 06:15:00,77.9,65.6,29.97,North,0,0.0,0.0,66,0.00,,---,0.00,VWS V14.01,2013-07-23 10:15:00,
2013-07-23 06:20:00,77.5,66.2,29.97,North,0,0.0,0.0,68,0.00,,---,0.00,VWS V14.01,2013-07-23 10:20:00,
2013-07-23 06:25:00,77.5,66.6,29.97,North,0,0.0,0.0,69,0.00,,---,0.00,VWS V14.01,2013-07-23 10:25:00,
2013-07-23 06:30:00,77.5,66.6,29.97,North,0,0.0,0.0,69,0.00,,---,0.00,VWS V14.01,2013-07-23 10:30:00,
2013-07-23 06:35:00,77.4,67.6,29.97,North,0,0.0,0.0,72,0.00,,---,0.00,VWS V14.01,2013-07-23 10:35:00,
2013-07-23 06:40:00,77.2,67.9,29.97,North,0,0.0,0.0,73,0.00,,---,0.00,VWS V14.01,2013-07-23 10:40:00,
2013-07-23 06:45:00,77.2,68.7,29.97,North,0,0.0,0.0,75,0.00,,---,0.00,VWS V14.01,2013-07-23 10:45:00,
2013-07-23 06:50:00,77.2,68.7,29.97,North,0,0.0,0.0,75,0.00,,---,0.00,VWS V14.01,2013-07-23 10:50:00,
2013-07-23 06:55:00,77.4,69.2,29.97,North,0,0.0,0.0,76,0.00,,---,0.00,VWS V14.01,2013-07-23 10:55:00,
2013-07-23 07:00:00,77.2,69.0,30.00,North,0,0.0,0.0,76,0.00,,---,0.00,VWS V14.01,2013-07-23 11:00:00,
2013-07-23 07:05:00,77.4,69.2,30.00,North,0,0.0,0.0,76,0.00,,---,0.00,VWS V14.01,2013-07-23 11:05:00,
2013-07-23 07:10:00,77.5,69.4,30.00,North,0,0.0,0.0,76,0.00,,---,0.00,VWS V14.01,2013-07-23 11:10:00,
2013-07-23 07:15:00,77.7,69.2,30.00,North,0,0.0,0.0,75,0.00,,---,0.00,VWS V14.01,2013-07-23 11:15:00,
2013-07-23 07:20:00,77.9,68.9,30.00,North,0,0.0,0.0,74,0.00,,---,0.00,VWS V14.01,2013-07-23 11:20:00,
2013-07-23 07:25:00,78.1,68.7,30.00,North,0,0.0,0.0,73,0.00,,---,0.00,VWS V14.01,2013-07-23 11:25:00,
2013-07-23 07:30:00,78.3,68.5,30.00,North,0,0.0,0.0,72,0.00,,---,0.00,VWS V14.01,2013-07-23 11:30:00,
2013-07-23 07:35:00,78.4,68.3,30.00,North,0,0.0,0.0,71,0.00,,---,0.00,VWS V14.01,2013-07-23 11:35:00,
2013-07-23 07:40:00,78.8,67.8,30.00,North,0,0.0,0.0,69,0.00,,---,0.00,VWS V14.01,2013-07-23 11:40:00,
2013-07-23 07:45:00,79.0,67.5,30.00,North,0,0.0,0.0,68,0.00,,---,0.00,VWS V14.01,2013-07-23 11:45:00,
2013-07-23 07:50:00,79.2,66.8,30.00,North,0,0.0,0.0,66,0.00,,---,0.00,VWS V14.01,2013-07-23 11:50:00,
2013-07-23 07:55:00,79.5,66.7,30.00,North,0,0.0,0.0,65,0.00,,---,0.00,VWS V14.01,2013-07-23 11:55:00,
2013-07-23 08:00:00,79.7,66.9,30.00,North,0,0.0,0.0,65,0.00,,---,0.00,VWS V14.01,2013-07-23 12:00:00,
2013-07-23 08:05:00,80.1,66.8,30.00,North,0,0.0,0.0,64,0.00,,---,0.00,VWS V14.01,2013-07-23 12:05:00,
2013-07-23 08:10:00,80.4,66.7,30.00,North,0,0.0,0.0,63,0.00,,---,0.00,VWS V14.01,2013-07-23 12:10:00,
2013-07-23 08:15:00,80.8,66.1,30.00,North,0,0.0,0.0,61,0.00,,---,0.00,VWS V14.01,2013-07-23 12:15:00,
2013-07-23 08:20:00,81.0,65.3,30.00,North,0,0.0,0.0,59,0.00,,---,0.00,VWS V14.01,2013-07-23 12:20:00,
2013-07-23 08:25:00,81.1,65.0,30.00,North,0,0.0,0.0,58,0.00,,---,0.00,VWS V14.01,2013-07-23 12:25:00,
2013-07-23 08:30:00,81.1,64.0,30.00,North,0,0.0,0.0,56,0.00,,---,0.00,VWS V14.01,2013-07-23 12:30:00,
2013-07-23 08:35:00,81.3,63.6,30.00,North,0,0.0,0.0,55,0.00,,---,0.00,VWS V14.01,2013-07-23 12:35:00,
2013-07-23 08:40:00,81.5,63.8,30.00,North,0,0.0,0.0,55,0.00,,---,0.00,VWS V14.01,2013-07-23 12:40:00,
2013-07-23 08:45:00,81.5,63.8,30.00,North,0,0.0,0.0,55,0.00,,---,0.00,VWS V14.01,2013-07-23 12:45:00,
2013-07-23 08:50:00,81.7,63.4,30.00,North,0,0.0,0.0,54,0.00,,---,0.00,VWS V14.01,2013-07-23 12:50:00,
2013-07-23 08:55:00,81.7,62.9,30.00,North,0,0.0,0.0,53,0.00,,---,0.00,VWS V14.01,2013-07-23 12:55:00,
2013-07-23 09:00:00,81.5,62.7,30.00,North,0,0.0,0.0,53,0.00,,---,0.00,VWS V14.01,2013-07-23 13:00:00,
2013-07-23 09:05:00,81.5,62.7,30.00,North,0,0.0,0.0,53,0.00,,---,0.00,VWS V14.01,2013-07-23 13:05:00,
2013-07-23 09:10:00,81.5,62.7,30.00,North,0,0.0,0.0,53,0.00,,---,0.00,VWS V14.01,2013-07-23 13:10:00,
2013-07-23 09:15:00,81.5,62.7,30.00,North,0,0.0,0.0,53,0.00,,---,0.00,VWS V14.01,2013-07-23 13:15:00,
2013-07-23 09:20:00,81.7,62.9,30.00,North,0,0.0,0.0,53,0.00,,---,0.00,VWS V14.01,2013-07-23 13:20:00,
2013-07-23 09:25:00,82.0,63.2,30.00,North,0,0.0,0.0,53,0.00,,---,0.00,VWS V14.01,2013-07-23 13:25:00,
2013-07-23 09:30:00,82.4,63.6,30.00,North,0,0.0,0.0,53,0.00,,---,0.00,VWS V14.01,2013-07-23 13:30:00,
2013-07-23 09:35:00,82.6,63.7,30.00,North,0,0.0,0.0,53,0.00,,---,0.00,VWS V14.01,2013-07-23 13:35:00,
2013-07-23 09:40:00,82.8,63.4,30.00,North,0,0.0,0.0,52,0.00,,---,0.00,VWS V14.01,2013-07-23 13:40:00,
2013-07-23 09:45:00,82.6,62.6,30.00,North,0,0.0,0.0,51,0.00,,---,0.00,VWS V14.01,2013-07-23 13:45:00,
2013-07-23 09:50:00,82.9,63.5,30.00,North,0,0.0,0.0,52,0.00,,---,0.00,VWS V14.01,2013-07-23 13:50:00,
2013-07-23 09:55:00,82.9,63.0,30.00,North,0,0.0,0.0,51,0.00,,---,0.00,VWS V14.01,2013-07-23 13:55:00,
2013-07-23 10:00:00,83.3,63.9,30.00,North,0,0.0,0.0,52,0.00,,---,0.00,VWS V14.01,2013-07-23 14:00:00,
2013-07-23 10:05:00,83.3,63.3,30.00,North,0,0.0,0.0,51,0.00,,---,0.00,VWS V14.01,2013-07-23 14:05:00,
2013-07-23 10:10:00,83.5,64.0,30.00,North,0,0.0,0.0,52,0.00,,---,0.00,VWS V14.01,2013-07-23 14:10:00,
2013-07-23 10:15:00,83.5,63.5,30.00,North,0,0.0,0.0,51,0.00,,---,0.00,VWS V14.01,2013-07-23 14:15:00,
2013-07-23 10:20:00,83.7,63.1,30.00,North,0,0.0,0.0,50,0.00,,---,0.00,VWS V14.01,2013-07-23 14:20:00,
2013-07-23 10:25:00,83.7,63.6,30.00,North,0,0.0,0.0,51,0.00,,---,0.00,VWS V14.01,2013-07-23 14:25:00,
2013-07-23 10:30:00,84.0,64.0,30.00,North,0,0.0,0.0,51,0.00,,---,0.00,VWS V14.01,2013-07-23 14:30:00,
2013-07-23 10:35:00,84.4,63.7,30.00,North,0,0.0,0.0,50,0.00,,---,0.00,VWS V14.01,2013-07-23 14:35:00,
2013-07-23 10:40:00,84.4,63.7,30.00,North,0,0.0,0.0,50,0.00,,---,0.00,VWS V14.01,2013-07-23 14:40:00,
2013-07-23 10:45:00,83.5,58.7,30.03,North,0,0.0,0.0,43,0.00,,---,0.00,VWS V14.01,2013-07-23 14:45:00,
2013-07-23 10:50:00,82.0,58.6,30.03,North,0,0.0,0.0,45,0.00,,---,0.00,VWS V14.01,2013-07-23 14:50:00,
2013-07-23 10:55:00,81.3,59.8,30.03,North,0,0.0,0.0,48,0.00,,---,0.00,VWS V14.01,2013-07-23 14:55:00,
2013-07-23 11:00:00,79.9,60.7,30.03,North,0,0.0,0.0,52,0.00,,---,0.00,VWS V14.01,2013-07-23 15:00:00,
2013-07-23 11:05:00,77.9,61.0,30.03,North,0,0.0,0.0,56,0.00,,---,0.00,VWS V14.01,2013-07-23 15:05:00,
2013-07-23 11:10:00,76.8,61.9,30.03,North,0,0.0,0.0,60,0.00,,---,0.00,VWS V14.01,2013-07-23 15:10:00,
2013-07-23 11:15:00,75.9,64.2,30.03,North,0,0.0,0.0,67,0.00,,---,0.00,VWS V14.01,2013-07-23 15:15:00,
2013-07-23 11:20:00,76.3,66.2,30.03,North,0,0.0,0.0,71,0.00,,---,0.00,VWS V14.01,2013-07-23 15:20:00,
2013-07-23 11:25:00,76.5,67.6,30.03,North,0,0.0,0.0,74,0.00,,---,0.00,VWS V14.01,2013-07-23 15:25:00,
2013-07-23 11:30:00,77.4,68.4,30.00,North,0,0.0,0.0,74,0.00,,---,0.00,VWS V14.01,2013-07-23 15:30:00,
2013-07-23 11:35:00,78.8,69.4,30.00,North,0,0.0,0.0,73,0.00,,---,0.00,VWS V14.01,2013-07-23 15:35:00,
2013-07-23 11:40:00,79.5,69.3,30.00,North,0,0.0,0.0,71,0.00,,---,0.00,VWS V14.01,2013-07-23 15:40:00,
2013-07-23 11:45:00,80.4,68.9,30.00,North,0,0.0,0.0,68,0.00,,---,0.00,VWS V14.01,2013-07-23 15:45:00,
2013-07-23 11:50:00,81.1,67.8,30.00,North,0,0.0,0.0,64,0.00,,---,0.00,VWS V14.01,2013-07-23 15:50:00,
2013-07-23 11:55:00,81.9,68.5,30.00,North,0,0.0,0.0,64,0.00,,---,0.00,VWS V14.01,2013-07-23 15:55:00,
2013-07-23 12:00:00,82.2,64.5,30.00,North,0,0.0,0.0,55,0.00,,---,0.00,VWS V14.01,2013-07-23 16:00:00,
2013-07-23 12:05:00,82.8,64.4,30.00,North,0,0.0,0.0,54,0.00,,---,0.00,VWS V14.01,2013-07-23 16:05:00,
2013-07-23 12:10:00,83.1,63.7,30.00,North,0,0.0,0.0,52,0.00,,---,0.00,VWS V14.01,2013-07-23 16:10:00,
2013-07-23 12:15:00,83.7,63.1,30.00,North,0,0.0,0.0,50,0.00,,---,0.00,VWS V14.01,2013-07-23 16:15:00,
2013-07-23 12:20:00,84.2,63.6,30.00,North,0,0.0,0.0,50,0.00,,---,0.00,VWS V14.01,2013-07-23 16:20:00,
2013-07-23 12:25:00,84.6,63.3,30.00,North,0,0.0,0.0,49,0.00,,---,0.00,VWS V14.01,2013-07-23 16:25:00,
2013-07-23 12:30:00,84.4,62.6,30.00,North,0,0.0,0.0,48,0.00,,---,0.00,VWS V14.01,2013-07-23 16:30:00,
2013-07-23 12:35:00,84.6,62.7,30.00,North,0,0.0,0.0,48,0.00,,---,0.00,VWS V14.01,2013-07-23 16:35:00,
2013-07-23 12:40:00,84.9,62.5,30.00,North,0,0.0,0.0,47,0.00,,---,0.00,VWS V14.01,2013-07-23 16:40:00,
2013-07-23 12:45:00,85.5,62.3,30.00,North,0,0.0,0.0,46,0.00,,---,0.00,VWS V14.01,2013-07-23 16:45:00,
2013-07-23 12:50:00,85.5,61.7,30.00,North,0,0.0,0.0,45,0.00,,---,0.00,VWS V14.01,2013-07-23 16:50:00,
2013-07-23 12:55:00,85.6,61.9,30.00,North,0,0.0,0.0,45,0.00,,---,0.00,VWS V14.01,2013-07-23 16:55:00,
2013-07-23 13:00:00,85.6,60.6,30.00,North,0,0.0,0.0,43,0.00,,---,0.00,VWS V14.01,2013-07-23 17:00:00,
2013-07-23 13:05:00,85.8,60.8,30.00,North,0,0.0,0.0,43,0.00,,---,0.00,VWS V14.01,2013-07-23 17:05:00,
2013-07-23 13:10:00,86.0,60.3,30.00,North,0,0.0,0.0,42,0.00,,---,0.00,VWS V14.01,2013-07-23 17:10:00,
2013-07-23 13:15:00,86.0,60.3,30.00,North,0,0.0,0.0,42,0.00,,---,0.00,VWS V14.01,2013-07-23 17:15:00,
2013-07-23 13:20:00,86.0,60.3,30.00,North,0,0.0,0.0,42,0.00,,---,0.00,VWS V14.01,2013-07-23 17:20:00,
2013-07-23 13:25:00,86.0,60.3,30.00,North,0,0.0,0.0,42,0.00,,---,0.00,VWS V14.01,2013-07-23 17:25:00,
2013-07-23 13:30:00,86.0,60.3,29.97,North,0,0.0,0.0,42,0.00,,---,0.00,VWS V14.01,2013-07-23 17:30:00,
2013-07-23 13:35:00,86.0,60.3,29.97,North,0,0.0,0.0,42,0.00,,---,0.00,VWS V14.01,2013-07-23 17:35:00,
2013-07-23 13:40:00,86.0,60.3,29.97,North,0,0.0,0.0,42,0.00,,---,0.00,VWS V14.01,2013-07-23 17:40:00,
2013-07-23 13:45:00,86.0,60.3,29.97,North,0,0.0,0.0,42,0.00,,---,0.00,VWS V14.01,2013-07-23 17:45:00,
2013-07-23 13:50:00,86.0,60.3,29.97,North,0,0.0,0.0,42,0.00,,---,0.00,VWS V14.01,2013-07-23 17:50:00,
2013-07-23 13:55:00,86.0,60.3,29.97,North,0,0.0,0.0,42,0.00,,---,0.00,VWS V14.01,2013-07-23 17:55:00,
2013-07-23 14:00:00,86.0,60.3,29.97,North,0,0.0,0.0,42,0.00,,---,0.00,VWS V14.01,2013-07-23 18:00:00,
2013-07-23 14:05:00,86.0,60.3,29.97,North,0,0.0,0.0,42,0.00,,---,0.00,VWS V14.01,2013-07-23 18:05:00,
2013-07-23 14:11:00,86.0,60.3,29.97,North,0,0.0,0.0,42,0.00,,---,0.00,VWS V14.01,2013-07-23 18:11:00,
2013-07-23 14:16:00,86.0,60.3,29.97,North,0,0.0,0.0,42,0.00,,---,0.00,VWS V14.01,2013-07-23 18:16:00,
2013-07-23 14:21:00,86.0,60.3,29.97,North,0,0.0,0.0,42,0.00,,---,0.00,VWS V14.01,2013-07-23 18:21:00,
2013-07-23 14:26:00,86.0,60.3,29.97,North,0,0.0,0.0,42,0.00,,---,0.00,VWS V14.01,2013-07-23 18:26:00,
2013-07-23 14:31:00,86.0,60.3,29.97,North,0,0.0,0.0,42,0.00,,---,0.00,VWS V14.01,2013-07-23 18:31:00,
2013-07-23 14:36:00,86.0,60.3,29.97,North,0,0.0,0.0,42,0.00,,---,0.00,VWS V14.01,2013-07-23 18:36:00,
2013-07-23 14:41:00,86.0,60.3,29.97,North,0,0.0,0.0,42,0.00,,---,0.00,VWS V14.01,2013-07-23 18:41:00,
2013-07-23 14:46:00,86.0,60.3,29.97,North,0,0.0,0.0,42,0.00,,---,0.00,VWS V14.01,2013-07-23 18:46:00,
2013-07-23 14:51:00,86.0,60.3,29.97,North,0,0.0,0.0,42,0.00,,---,0.00,VWS V14.01,2013-07-23 18:51:00,
2013-07-23 14:56:00,86.0,60.3,29.97,North,0,0.0,0.0,42,0.00,,---,0.00,VWS V14.01,2013-07-23 18:56:00,
2013-07-23 15:01:00,86.0,60.3,29.97,North,0,0.0,0.0,42,0.00,,---,0.00,VWS V14.01,2013-07-23 19:01:00,
2013-07-23 15:06:00,86.0,60.3,29.97,North,0,0.0,0.0,42,0.00,,---,0.00,VWS V14.01,2013-07-23 19:06:00,
2013-07-23 15:11:00,86.0,60.3,29.97,North,0,0.0,0.0,42,0.00,,---,0.00,VWS V14.01,2013-07-23 19:11:00,
2013-07-23 15:16:00,86.0,60.3,29.97,North,0,0.0,0.0,42,0.00,,---,0.00,VWS V14.01,2013-07-23 19:16:00,
2013-07-23 15:21:00,86.0,60.3,29.97,North,0,0.0,0.0,42,0.00,,---,0.00,VWS V14.01,2013-07-23 19:21:00,
2013-07-23 15:27:00,86.0,60.3,29.97,North,0,0.0,0.0,42,0.00,,---,0.00,VWS V14.01,2013-07-23 19:27:00,
2013-07-23 15:32:00,86.0,60.3,29.97,North,0,0.0,0.0,42,0.00,,---,0.00,VWS V14.01,2013-07-23 19:32:00,
2013-07-23 15:37:00,86.0,60.3,29.97,North,0,0.0,0.0,42,0.00,,---,0.00,VWS V14.01,2013-07-23 19:37:00,
2013-07-23 15:42:00,86.0,60.3,29.97,North,0,0.0,0.0,42,0.00,,---,0.00,VWS V14.01,2013-07-23 19:42:00,
2013-07-23 15:47:00,86.0,60.3,29.94,North,0,0.0,0.0,42,0.00,,---,0.00,VWS V14.01,2013-07-23 19:47:00,
2013-07-23 15:52:00,86.0,60.3,29.94,North,0,0.0,0.0,42,0.00,,---,0.00,VWS V14.01,2013-07-23 19:52:00,
2013-07-23 15:57:00,86.0,60.3,29.94,North,0,0.0,0.0,42,0.00,,---,0.00,VWS V14.01,2013-07-23 19:57:00,
2013-07-23 16:02:00,86.0,60.3,29.94,North,0,0.0,0.0,42,0.00,,---,0.00,VWS V14.01,2013-07-23 20:02:00,
2013-07-23 16:07:00,86.0,60.3,29.94,North,0,0.0,0.0,42,0.00,,---,0.00,VWS V14.01,2013-07-23 20:07:00,
2013-07-23 16:12:00,86.0,60.3,29.94,North,0,0.0,0.0,42,0.00,,---,0.00,VWS V14.01,2013-07-23 20:12:00,
2013-07-23 16:18:00,86.0,60.3,29.94,North,0,0.0,0.0,42,0.00,,---,0.00,VWS V14.01,2013-07-23 20:18:00,
2013-07-23 16:22:00,86.0,60.3,29.94,North,0,0.0,0.0,42,0.00,,---,0.00,VWS V14.01,2013-07-23 20:22:00,
2013-07-23 16:27:00,86.0,60.3,29.94,North,0,0.0,0.0,42,0.00,,---,0.00,VWS V14.01,2013-07-23 20:27:00,
2013-07-23 16:32:00,86.0,60.3,29.94,North,0,0.0,0.0,42,0.00,,---,0.00,VWS V14.01,2013-07-23 20:32:00,
2013-07-23 16:37:00,86.0,60.3,29.94,North,0,0.0,0.0,42,0.00,,---,0.00,VWS V14.01,2013-07-23 20:37:00,
2013-07-23 16:43:00,82.2,62.9,29.94,North,0,0.0,0.0,52,0.00,,---,0.00,VWS V14.01,2013-07-23 20:43:00,
2013-07-23 16:48:00,82.2,62.9,29.94,North,0,0.0,0.0,52,0.00,,---,0.00,VWS V14.01,2013-07-23 20:48:00,
2013-07-23 16:53:00,82.2,62.9,29.94,North,0,0.0,0.0,52,0.00,,---,0.00,VWS V14.01,2013-07-23 20:53:00,
2013-07-23 16:58:00,82.2,62.9,29.94,North,0,0.0,0.0,52,0.00,,---,0.00,VWS V14.01,2013-07-23 20:58:00,
2013-07-23 17:03:00,82.2,62.9,29.94,North,0,0.0,0.0,52,0.00,,---,0.00,VWS V14.01,2013-07-23 21:03:00,
2013-07-23 17:08:00,82.2,62.9,29.94,North,0,0.0,0.0,52,0.00,,---,0.00,VWS V14.01,2013-07-23 21:08:00,
2013-07-23 17:13:00,82.2,62.9,29.94,North,0,0.0,0.0,52,0.00,,---,0.00,VWS V14.01,2013-07-23 21:13:00,
2013-07-23 17:19:00,82.2,62.9,29.94,North,0,0.0,0.0,52,0.00,,---,0.00,VWS V14.01,2013-07-23 21:19:00,
2013-07-23 17:24:00,82.2,62.9,29.94,North,0,0.0,0.0,52,0.00,,---,0.00,VWS V14.01,2013-07-23 21:24:00,
2013-07-23 17:29:00,82.2,62.9,29.94,North,0,0.0,0.0,52,0.00,,---,0.00,VWS V14.01,2013-07-23 21:29:00,
2013-07-23 17:34:00,82.2,62.9,29.94,North,0,0.0,0.0,52,0.00,,---,0.00,VWS V14.01,2013-07-23 21:34:00,
2013-07-23 17:39:00,82.2,62.9,29.94,North,0,0.0,0.0,52,0.00,,---,0.00,VWS V14.01,2013-07-23 21:39:00,
2013-07-23 17:44:00,82.2,62.9,29.94,North,0,0.0,0.0,52,0.00,,---,0.00,VWS V14.01,2013-07-23 21:44:00,
2013-07-23 17:49:00,82.2,62.9,29.94,North,0,0.0,0.0,52,0.00,,---,0.00,VWS V14.01,2013-07-23 21:49:00,
2013-07-23 17:54:00,82.2,62.9,29.94,North,0,0.0,0.0,52,0.00,,---,0.00,VWS V14.01,2013-07-23 21:54:00,
2013-07-23 17:59:00,82.2,62.9,29.94,North,0,0.0,0.0,52,0.00,,---,0.00,VWS V14.01,2013-07-23 21:59:00,
2013-07-23 18:04:00,82.2,62.9,29.94,North,0,0.0,0.0,52,0.00,,---,0.00,VWS V14.01,2013-07-23 22:04:00,
2013-07-23 18:09:00,82.2,62.9,29.94,North,0,0.0,0.0,52,0.00,,---,0.00,VWS V14.01,2013-07-23 22:09:00,
2013-07-23 18:14:00,82.2,62.9,29.91,North,0,0.0,0.0,52,0.00,,---,0.00,VWS V14.01,2013-07-23 22:14:00,
2013-07-23 18:19:00,82.2,62.9,29.91,North,0,0.0,0.0,52,0.00,,---,0.00,VWS V14.01,2013-07-23 22:19:00,
2013-07-23 18:24:00,82.2,62.9,29.91,North,0,0.0,0.0,52,0.00,,---,0.00,VWS V14.01,2013-07-23 22:24:00,
2013-07-23 18:29:00,82.2,62.9,29.91,North,0,0.0,0.0,52,0.00,,---,0.00,VWS V14.01,2013-07-23 22:29:00,
2013-07-23 18:34:00,82.2,62.9,29.91,North,0,0.0,0.0,52,0.00,,---,0.00,VWS V14.01,2013-07-23 22:34:00,
2013-07-23 18:39:00,82.2,62.9,29.91,North,0,0.0,0.0,52,0.00,,---,0.00,VWS V14.01,2013-07-23 22:39:00,
2013-07-23 18:45:00,82.2,62.9,29.91,North,0,0.0,0.0,52,0.00,,---,0.00,VWS V14.01,2013-07-23 22:45:00,
2013-07-23 18:50:00,82.2,62.9,29.91,North,0,0.0,0.0,52,0.00,,---,0.00,VWS V14.01,2013-07-23 22:50:00,
2013-07-23 18:55:00,81.1,65.5,29.91,North,0,0.0,0.0,59,0.00,,---,0.00,VWS V14.01,2013-07-23 22:55:00,
2013-07-23 19:00:00,81.1,65.5,29.91,North,0,0.0,0.0,59,0.00,,---,0.00,VWS V14.01,2013-07-23 23:00:00,
2013-07-23 19:05:00,81.1,65.5,29.91,North,0,0.0,0.0,59,0.00,,---,0.00,VWS V14.01,2013-07-23 23:05:00,
2013-07-23 19:10:00,81.1,65.5,29.91,North,0,0.0,0.0,59,0.00,,---,0.00,VWS V14.01,2013-07-23 23:10:00,
2013-07-23 19:15:00,81.1,65.5,29.91,North,0,0.0,0.0,59,0.00,,---,0.00,VWS V14.01,2013-07-23 23:15:00,
2013-07-23 19:20:00,81.1,65.5,29.91,North,0,0.0,0.0,59,0.00,,---,0.00,VWS V14.01,2013-07-23 23:20:00,
2013-07-23 19:25:00,81.1,65.5,29.91,North,0,0.0,0.0,59,0.00,,---,0.00,VWS V14.01,2013-07-23 23:25:00,
2013-07-23 19:30:00,81.1,65.5,29.91,North,0,0.0,0.0,59,0.00,,---,0.00,VWS V14.01,2013-07-23 23:30:00,
2013-07-23 19:35:00,81.1,65.5,29.91,North,0,0.0,0.0,59,0.00,,---,0.00,VWS V14.01,2013-07-23 23:35:00,
2013-07-23 19:40:00,81.1,65.5,29.91,North,0,0.0,0.0,59,0.00,,---,0.00,VWS V14.01,2013-07-23 23:40:00,
2013-07-23 19:45:00,81.1,65.5,29.91,North,0,0.0,0.0,59,0.00,,---,0.00,VWS V14.01,2013-07-23 23:45:00,
2013-07-23 19:50:00,81.1,65.5,29.91,North,0,0.0,0.0,59,0.00,,---,0.00,VWS V14.01,2013-07-23 23:50:00,
2013-07-23 19:55:00,81.1,65.5,29.91,North,0,0.0,0.0,59,0.00,,---,0.00,VWS V14.01,2013-07-23 23:55:00,
2013-07-23 20:00:00,81.1,65.5,29.91,North,0,0.0,0.0,59,0.00,,---,0.00,VWS V14.01,2013-07-24 00:00:00,
2013-07-23 20:05:00,81.1,65.5,29.91,North,0,0.0,0.0,59,0.00,,---,0.00,VWS V14.01,2013-07-24 00:05:00,
2013-07-23 20:10:00,81.1,65.5,29.91,North,0,0.0,0.0,59,0.00,,---,0.00,VWS V14.01,2013-07-24 00:10:00,
2013-07-23 20:15:00,81.1,65.5,29.91,North,0,0.0,0.0,59,0.00,,---,0.00,VWS V14.01,2013-07-24 00:15:00,
2013-07-23 20:20:00,81.3,62.0,29.91,North,0,0.0,0.0,52,0.00,,---,0.00,VWS V14.01,2013-07-24 00:20:00,
2013-07-23 20:25:00,81.3,62.0,29.91,North,0,0.0,0.0,52,0.00,,---,0.00,VWS V14.01,2013-07-24 00:25:00,
2013-07-23 20:30:00,81.3,62.0,29.91,North,0,0.0,0.0,52,0.00,,---,0.00,VWS V14.01,2013-07-24 00:30:00,
2013-07-23 20:35:00,81.3,62.0,29.91,North,0,0.0,0.0,52,0.00,,---,0.00,VWS V14.01,2013-07-24 00:35:00,
2013-07-23 20:40:00,81.3,62.0,29.91,North,0,0.0,0.0,52,0.00,,---,0.00,VWS V14.01,2013-07-24 00:40:00,
2013-07-23 20:45:00,81.3,62.0,29.88,North,0,0.0,0.0,52,0.00,,---,0.00,VWS V14.01,2013-07-24 00:45:00,
2013-07-23 20:50:00,81.3,62.0,29.88,North,0,0.0,0.0,52,0.00,,---,0.00,VWS V14.01,2013-07-24 00:50:00,
2013-07-23 20:55:00,81.3,62.0,29.88,North,0,0.0,0.0,52,0.00,,---,0.00,VWS V14.01,2013-07-24 00:55:00,
2013-07-23 21:00:00,81.3,62.0,29.91,North,0,0.0,0.0,52,0.00,,---,0.00,VWS V14.01,2013-07-24 01:00:00,
2013-07-23 21:05:00,81.3,62.0,29.91,North,0,0.0,0.0,52,0.00,,---,0.00,VWS V14.01,2013-07-24 01:05:00,
2013-07-23 21:11:00,81.3,62.0,29.91,North,0,0.0,0.0,52,0.00,,---,0.00,VWS V14.01,2013-07-24 01:11:00,
2013-07-23 21:16:00,81.3,62.0,29.91,North,0,0.0,0.0,52,0.00,,---,0.00,VWS V14.01,2013-07-24 01:16:00,
2013-07-23 21:21:00,80.8,63.6,29.91,North,0,0.0,0.0,56,0.00,,---,0.00,VWS V14.01,2013-07-24 01:21:00,
2013-07-23 21:26:00,80.8,64.1,29.91,North,0,0.0,0.0,57,0.00,,---,0.00,VWS V14.01,2013-07-24 01:26:00,
2013-07-23 21:31:00,80.8,64.1,29.91,North,0,0.0,0.0,57,0.00,,---,0.00,VWS V14.01,2013-07-24 01:31:00,
2013-07-23 21:36:00,80.8,64.6,29.91,North,0,0.0,0.0,58,0.00,,---,0.00,VWS V14.01,2013-07-24 01:36:00,
2013-07-23 21:41:00,80.8,63.1,29.91,North,0,0.0,0.0,55,0.00,,---,0.00,VWS V14.01,2013-07-24 01:41:00,
2013-07-23 21:46:00,80.8,62.6,29.91,North,0,0.0,0.0,54,0.00,,---,0.00,VWS V14.01,2013-07-24 01:46:00,
2013-07-23 21:51:00,80.6,62.4,29.91,North,0,0.0,0.0,54,0.00,,---,0.00,VWS V14.01,2013-07-24 01:51:00,
2013-07-23 21:56:00,80.6,62.4,29.91,North,0,0.0,0.0,54,0.00,,---,0.00,VWS V14.01,2013-07-24 01:56:00,
2013-07-23 22:01:00,80.6,62.4,29.91,North,0,0.0,0.0,54,0.00,,---,0.00,VWS V14.01,2013-07-24 02:01:00,
2013-07-23 22:06:00,80.6,63.0,29.91,North,0,0.0,0.0,55,0.00,,---,0.00,VWS V14.01,2013-07-24 02:06:00,
2013-07-23 22:12:00,80.6,63.5,29.91,North,0,0.0,0.0,56,0.00,,---,0.00,VWS V14.01,2013-07-24 02:12:00,
2013-07-23 22:17:00,80.8,64.1,29.91,North,0,0.0,0.0,57,0.00,,---,0.00,VWS V14.01,2013-07-24 02:17:00,
2013-07-23 22:22:00,80.8,64.1,29.91,North,0,0.0,0.0,57,0.00,,---,0.00,VWS V14.01,2013-07-24 02:22:00,
2013-07-23 22:27:00,80.8,64.6,29.91,North,0,0.0,0.0,58,0.00,,---,0.00,VWS V14.01,2013-07-24 02:27:00,
2013-07-23 22:32:00,80.8,64.6,29.91,North,0,0.0,0.0,58,0.00,,---,0.00,VWS V14.01,2013-07-24 02:32:00,
2013-07-23 22:37:00,80.8,64.1,29.91,North,0,0.0,0.0,57,0.00,,---,0.00,VWS V14.01,2013-07-24 02:37:00,
2013-07-23 22:42:00,80.8,64.1,29.91,North,0,0.0,0.0,57,0.00,,---,0.00,VWS V14.01,2013-07-24 02:42:00,
2013-07-23 22:47:00,80.8,64.6,29.91,North,0,0.0,0.0,58,0.00,,---,0.00,VWS V14.01,2013-07-24 02:47:00,
2013-07-23 22:52:00,80.8,64.6,29.91,North,0,0.0,0.0,58,0.00,,---,0.00,VWS V14.01,2013-07-24 02:52:00,
2013-07-23 22:57:00,80.8,65.1,29.91,North,0,0.0,0.0,59,0.00,,---,0.00,VWS V14.01,2013-07-24 02:57:00,
2013-07-23 23:02:00,80.8,65.1,29.94,North,0,0.0,0.0,59,0.00,,---,0.00,VWS V14.01,2013-07-24 03:02:00,
2013-07-23 23:08:00,80.8,65.1,29.94,North,0,0.0,0.0,59,0.00,,---,0.00,VWS V14.01,2013-07-24 03:08:00,
2013-07-23 23:13:00,80.8,65.1,29.94,North,0,0.0,0.0,59,0.00,,---,0.00,VWS V14.01,2013-07-24 03:13:00,
2013-07-23 23:18:00,81.0,65.3,29.94,North,0,0.0,0.0,59,0.00,,---,0.00,VWS V14.01,2013-07-24 03:18:00,
2013-07-23 23:23:00,81.0,65.3,29.94,North,0,0.0,0.0,59,0.00,,---,0.00,VWS V14.01,2013-07-24 03:23:00,
2013-07-23 23:28:00,81.0,65.3,29.94,North,0,0.0,0.0,59,0.00,,---,0.00,VWS V14.01,2013-07-24 03:28:00,
2013-07-23 23:33:00,81.0,65.3,29.94,North,0,0.0,0.0,59,0.00,,---,0.00,VWS V14.01,2013-07-24 03:33:00,
2013-07-23 23:38:00,81.0,65.3,29.94,North,0,0.0,0.0,59,0.00,,---,0.00,VWS V14.01,2013-07-24 03:38:00,
2013-07-23 23:43:00,81.0,65.8,29.94,North,0,0.0,0.0,60,0.00,,---,0.00,VWS V14.01,2013-07-24 03:43:00,
2013-07-23 23:48:00,81.0,65.8,29.94,North,0,0.0,0.0,60,0.00,,---,0.00,VWS V14.01,2013-07-24 03:48:00,
2013-07-23 23:53:00,81.0,66.3,29.94,North,0,0.0,0.0,61,0.00,,---,0.00,VWS V14.01,2013-07-24 03:53:00,
2013-07-23 23:58:00,81.0,65.8,29.94,North,0,0.0,0.0,60,0.00,,---,0.00,VWS V14.01,2013-07-24 03:58:00,